Flag for Italy Weather past 2 weeks in Bologna, Italy

Now
57 °F

Sunny.


Feels Like: 57 °F
Forecast: 50 / 72 °F
Wind: 2 mph from North

Location: Bologna / Borgo Panigale

Current Time: Sep 23, 2014 at 9:15:30 AM

Latest Report: Sep 23, 2014 at 8:20 AM


Visibility: 10 mi

Pressure: 30.01 "Hg

Humidity: 94%

Dew point: 55 °F

Location of BolognaLocation

Historic Weather in Bologna — Graph

°F

Bologna temperature yesterday

Maximum temperature yesterday: 81 °F (at 4:20 PM)
Minimum temperature yesterday: 63 °F (at 5:50 AM)
Average temperature yesterday: 70 °F

Past Weeks' High & Low Weather Summary

 TemperatureHumidityPressure
High86 °F (Sep 8, 4:20 PM)100% (Sep 10, 4:50 AM)30.12 "Hg (Sep 10, 4:50 AM)
Low55 °F (Sep 13, 5:50 AM)40% (Sep 8, 4:20 PM)29.71 "Hg (Sep 22, 7:50 PM)
Average68 °F78%29.96 "Hg
* Reported Sep 8 7:20 AM — Sep 23 7:50 AM, Bologna, Weather by CustomWeather, © 2014

Note: Actual official high and low records may vary slightly from our data, if they occured in-between our weather recording intervals... More about our weather records

Advertising

Bologna weather history for previous 24 hours

 ConditionsComfort  
Time TempWeatherWind HumidityBarometerVisibility
7:50 AM
Sep 23
55 °FClear.1 mph88%30.01 "Hg10 mi
7:20 AM55 °FClear.5 mph88%29.98 "Hg10 mi
6:50 AM55 °FPassing clouds.5 mph88%29.98 "HgN/A
6:20 AM55 °FPassing clouds.7 mph88%29.98 "HgN/A
5:50 AM55 °FPassing clouds.7 mph94%29.95 "HgN/A
5:20 AM57 °FPassing clouds.8 mph88%29.95 "HgN/A
4:50 AM57 °FPassing clouds.5 mph88%29.95 "HgN/A
4:20 AM57 °FPassing clouds.8 mph94%29.95 "HgN/A
3:50 AM59 °FPassing clouds.6 mph88%29.95 "HgN/A
3:20 AM59 °FPassing clouds.5 mph88%29.95 "HgN/A
2:50 AM59 °FPassing clouds.5 mph88%29.95 "HgN/A
2:20 AM57 °FPassing clouds.6 mph94%29.95 "HgN/A
1:50 AM59 °FPassing clouds.9 mph88%29.95 "HgN/A
1:20 AM61 °FPartly cloudy.9 mph83%29.95 "HgN/A
12:50 AM61 °FPartly cloudy.10 mph83%29.92 "HgN/A
12:20 AM61 °FPassing clouds.13 mph83%29.92 "HgN/A
11:50 PM
Sep 22
63 °FPassing clouds.10 mph77%29.89 "HgN/A
11:20 PM68 °FPassing clouds.12 mph56%29.83 "HgN/A
10:50 PM70 °FPassing clouds.15 mph43%29.80 "HgN/A
10:20 PM70 °FClear.10 mph43%29.74 "Hg10 mi
9:50 PM66 °FClear.8 mph64%29.74 "Hg10 mi
9:20 PM66 °FClear.9 mph68%29.74 "Hg10 mi
8:50 PM68 °FClear.7 mph73%29.74 "Hg10 mi
8:20 PM70 °FPassing clouds.9 mph69%29.71 "HgN/A
7:50 PM70 °FSunny.7 mph69%29.71 "Hg10 mi
7:20 PM73 °FSunny.5 mph57%29.74 "Hg10 mi
6:50 PM75 °FSunny.5 mph54%29.74 "Hg10 mi
6:20 PM77 °FSunny.7 mph51%29.74 "Hg10 mi
5:50 PM79 °FPassing clouds.8 mph48%29.74 "HgN/A
5:20 PM79 °FSunny.10 mph48%29.74 "Hg10 mi
4:50 PM81 °FPassing clouds.8 mph45%29.74 "HgN/A
4:20 PM81 °FPassing clouds.10 mph45%29.77 "HgN/A
3:50 PM79 °FPassing clouds.9 mph48%29.77 "HgN/A
3:20 PM79 °FPassing clouds.10 mph48%29.77 "HgN/A
2:50 PM79 °FPassing clouds.13 mph51%29.80 "HgN/A
2:20 PM79 °FPassing clouds.13 mph48%29.80 "HgN/A
1:50 PM79 °FPassing clouds.12 mph51%29.80 "HgN/A
1:20 PM79 °FPassing clouds.10 mph48%29.80 "HgN/A
12:50 PM77 °FPassing clouds.13 mph51%29.83 "HgN/A
12:20 PM77 °FPassing clouds.9 mph54%29.83 "HgN/A
11:50 AM75 °FPassing clouds.7 mph61%29.83 "HgN/A
11:20 AM73 °FPassing clouds.7 mph69%29.83 "HgN/A
10:50 AM73 °FPassing clouds.7 mph69%29.86 "HgN/A
10:20 AM72 °FPassing clouds.6 mph73%29.86 "HgN/A
9:50 AM70 °FSunny.6 mph73%29.86 "Hg10 mi
9:20 AM70 °FPassing clouds.5 mph69%29.83 "HgN/A
Weather by CustomWeather, © 2014

See weather overviewHow to use our weather pages